sat.trackr.live / text

‹ back to catalog

BEIDOU-2 G1

NORAD 36287 · 2010-001A

PAYLOAD ACTIVE UNKNOWN

§ Identity

Operator
Country
PRC
Launch date
2010-01-16
Launch site
XICLF
Launch vehicle
Mass (kg)
RCS (m²)
79.43

Purposes: comms

External: N2YO · Heavens-Above · Gunter

§ Orbital elements

Epoch: 2026-09-19T21:03:35.294976Z

Period
1,436.07 min
Inclination
4.5118°
Eccentricity
0.0001915
Mean motion
1.00273859 rev/d
Perigee alt
35,777.9 km
Apogee alt
35,794.1 km
Semi-major
42,164.2 km
B*
0.0000e+0
RAAN
59.9997°
Arg perigee
258.5493°
Mean anomaly
136.6233°
Rev number
6,112

§ Raw data

BEIDOU-2 G11 36287U 10001A   26262.87749184 -.00000282  00000+0  00000+0 0  99952 36287   4.5118  59.9997 0001915 258.5493 136.6233  1.00273859 61126

JSON: /api/v1/satellites/36287 · /tle

For live sub-satellite position, see the globe view (requires WebGL).

§ Visibility from observer

Set your observer location to see the next 7 days of passes ≥ 10°. The values pass through the URL so the page stays shareable.

No JS? Fill the form by hand. The geolocation button needs JavaScript.